Chamblee, GA

11:08 PM EDT on September 24, 2016 (GMT -0400)
Dekalb-Peachtree

Weather History for KPDK - December, 2014

Change the Weather History Date:

Friday, December 19, 2014

  Actual Average Record
Temperature  
Mean Temperature 45 °F 43 °F  
Max Temperature 54 °F 53 °F 70 °F (2006)
Min Temperature 36 °F 34 °F 19 °F (2000)
Degree Days  
Heating Degree Days 20 22  
Month to date heating degree days 316 370  
Since 1 July heating degree days 980 897  
Moisture  
Dew Point 33 °F    
Average Humidity 66    
Maximum Humidity 82    
Minimum Humidity 50    
Precipitation  
Precipitation 0.02 in 0.13 in 0.69 in (2002)
Month to date precipitation 0.71 2.89  
Year to date precipitation 43.38 51.70  
Sea Level Pressure  
Sea Level Pressure 30.15 in    
Wind  
Wind Speed 4 mph (WNW)    
Max Wind Speed 10 mph    
Max Gust Speed 13 mph    
Visibility 10 miles    
Events Rain    
T = Trace of Precipitation, MM = Missing Value Source: NWS Daily Summary

Daily Weather History Graph

Daily Weather History Graph

Search for Another Location

Airport or City:

Trip Planner

Search our weather history database for the weather conditions in past years. The results will help you decide how hot, cold, wet, or windy it might be!

Date:

Astronomy

Dec. 19, 2014 Rise Set
Actual Time 7:37 AM EST 5:31 PM EST
Civil Twilight 7:09 AM EST 5:59 PM EST
Nautical Twilight 6:38 AM EST 6:30 PM EST
Astronomical Twilight 6:07 AM EST 7:00 PM EST
Moon 4:56 AM EST (12/19) 3:48 PM EST (12/19)
Length of Visible Light 10h 49m
Length of Day
9h 54m
Waning Crescent, 7% of the Moon is Illuminated
Dec 19
Waning Crescent
Dec 21
New
Dec 28
First Quarter
Jan 4
Full
Jan 13
Last Quarter

Hourly Weather History & Observations

Time (EST) Temp. Windchill Dew Point Humidity Pressure Visibility Wind Dir Wind Speed Gust Speed Precip Events Conditions
12:53 AM 39.2 °F 37.0 °F 32.0 °F 75% 30.13 in 10.0 mi NW 3.5 mph - N/A   Clear
1:53 AM 39.9 °F 35.8 °F 32.0 °F 73% 30.15 in 10.0 mi WNW 5.8 mph - N/A   Clear
2:53 AM 39.0 °F 35.7 °F 32.0 °F 76% 30.14 in 10.0 mi NW 4.6 mph - N/A   Clear
3:53 AM 37.9 °F 33.5 °F 32.0 °F 79% 30.15 in 10.0 mi West 5.8 mph - N/A   Clear
4:53 AM 37.0 °F 33.3 °F 30.9 °F 79% 30.14 in 10.0 mi NW 4.6 mph - N/A   Clear
5:53 AM 37.9 °F 32.7 °F 30.9 °F 76% 30.14 in 10.0 mi NW 6.9 mph - N/A   Clear
6:53 AM 37.0 °F 34.5 °F 30.9 °F 79% 30.17 in 10.0 mi WNW 3.5 mph - N/A   Clear
7:53 AM 37.0 °F 34.5 °F 30.9 °F 79% 30.18 in 9.0 mi SW 3.5 mph - N/A   Clear
8:53 AM 37.9 °F 35.5 °F 32.0 °F 79% 30.19 in 8.0 mi West 3.5 mph - N/A   Clear
9:53 AM 44.1 °F 42.5 °F 32.0 °F 63% 30.20 in 10.0 mi Variable 3.5 mph - N/A   Clear
10:53 AM 51.1 °F - 34.0 °F 52% 30.17 in 10.0 mi Variable 3.5 mph - N/A   Clear
11:53 AM 51.1 °F - 34.0 °F 52% 30.17 in 10.0 mi Calm Calm - N/A   Clear
12:53 PM 52.0 °F - 34.0 °F 50% 30.14 in 10.0 mi WSW 4.6 mph - N/A   Clear
1:53 PM 54.0 °F - 35.1 °F 49% 30.13 in 10.0 mi NW 3.5 mph - N/A   Clear
2:53 PM 53.1 °F - 35.1 °F 50% 30.12 in 10.0 mi West 3.5 mph - N/A   Clear
3:53 PM 52.0 °F - 35.1 °F 53% 30.12 in 10.0 mi NW 5.8 mph - N/A   Clear
4:53 PM 50.0 °F - 34.0 °F 54% 30.12 in 10.0 mi NW 6.9 mph - N/A   Clear
5:53 PM 48.2 °F - 33.8 °F 58% 30.11 in 10.0 mi NW 4.6 mph - N/A   Clear
6:53 PM 46.9 °F - 34.0 °F 61% 30.16 in 10.0 mi NW 5.8 mph - N/A   Clear
7:53 PM 45.0 °F 41.8 °F 33.1 °F 63% 30.17 in 10.0 mi West 5.8 mph - N/A   Clear
8:53 PM 45.0 °F 43.5 °F 33.1 °F 63% 30.17 in 10.0 mi West 3.5 mph - N/A   Mostly Cloudy
9:53 PM 44.1 °F 42.5 °F 32.0 °F 63% 30.19 in 10.0 mi WNW 3.5 mph - N/A   Overcast
10:53 PM 43.0 °F 41.3 °F 34.0 °F 71% 30.19 in 9.0 mi West 3.5 mph - 0.00 in Rain Light Rain
11:53 PM 42.1 °F - 35.1 °F 76% 30.17 in 6.0 mi Calm Calm - 0.02 in Rain Light Rain